Location: Newark
(7.1028°S, 35.3258°W)
Time: 08:24:02
(UTC+00:00)

deb Explorer IX - Pass Details

Date: 26 February 2020
Orbit: 547 x 1100 km, 38.8° (Epoch: 04 April)

Event Time Altitude Azimuth Distance (km) Brightness Sun altitude
Rises 21:42:08 0° 267° (W) 3,169 ? -15.5°
Reaches altitude 10° 21:45:35 10° 243° (WSW) 2,370 ? -16.4°
Maximum altitude 21:48:40 15° 209° (SSW) 2,156 ? -17.1°
Drops below altitude 10° 21:52:00 10° 176° (S) 2,593 ? -17.9°
Sets 21:56:05 0° 154° (SSE) 3,663 ? -18.9°
